SCP
0 0 0 0 0 0 0 0 0 0 0 0 0 0 0 0 0 0 0 0 0 0 0 0 0 0 0 0 0 0 0 0 0 0 0 0 0 0 0 0 0 0 0 0 0 0 0 0 0
0 0 0 0 0 0 0 0 0 0 0 0 0 0 0 0 0 0 0 0 0 0 0 0 0 0 0 0 0 0 0 0 0 0 0 0 0 0 0 0 0 0 0 0 0 0 0 0 0
0 0 0 0 0 0 0 0 0 0 0 0 0 0 0 0 0 0 0 0 0 0 0 0 0 0 0 0 0 0 0 0 0 0 0 0 0 0 0 0 0 0 0 0 0 0 0 0 0
0 0 0 0 0 0 0 0 0 0 0 0 0 0 0 0 0 0 0 0 0 0 0 0 0 0 0 0 0 0 0 0 0 0 0 0 0 0 0 0 0 0 0 0 0 0 0 0 0
0 0 0 0 0 0 0 0 0 0 0 0 0 0 0 0 0 0 0 0 0 0 0 0 0 0 0 0 0 0 0 0 0 0 0 0 0 0 0 0 0 0 0 0 0 0 0 0 0
0 0 0 0 0 0 0 0 0 0 0 0 0 0 0 0 0 0 0 0 0 0 0 0 0 0 0 0 0 0 0 0 0 0 0 0 0 0 0 0 0 0 0 0 0 0 0 0 0
0 0 0 0 0 0 0 0 0 0 0 0 0 0 0 0 0 0 0 0 0 0 0 0 0 0 0 0 0 0 0 0 0 0 0 0 0 0 0 0 0 0 0 0 0 0 0 0 0
0 0 0 0 0 0 0 0 0 0 0 0 0 0 0 0 0 0 0 0 0 0 0 0 0 0 0 0 0 0 0 0 0 0 0 0 0 0 0 0 0 0 0 0 -0 -0 -0 -0 0
0 0 0 0 0 0 0 0 0 0 0 0 0 0 0 0 0 0 0 0 0 0 0 0 0 0 0 0 0 0 0 0 0 0 0 0 0 0 0 0 0 0 0 -0 -0 -0 0 0 0
0 0 0 0 0 0 0 0 0 0 0 0 0 0 0 0 0 0 0 0 0 0 0 0 0 0 0 0 0 0 0 0 0 0 0 0 0 0 0 0 0 0 -0 0 0 0 0 0 0
0 0 0 0 0 0 0 0 0 0 0 0 0 0 0 0 0 0 0 0 0 0 0 0 0 0 0 0 0 0 0 0 0 0 0 0 0 0 0 0 0 0 0 0 0 0 0 0 0
0 0 0 0 0 0 0 0 0 0 0 0 0 0 0 0 0 0 0 0 0 0 0 0 0 0 0 0 0 0 0 0 0 0 0 0 0 0 0 0 0 0 0 0 0 0 0 0 0
0 0 0 0 0 0 0 0 0 0 0 0 0 0 0 0 0 0 0 0 0 0 0 0 0 0 0 0 0 0 0 0 0 0 0 0 0 0 0 0 0 0 0 0 0 0 0 0 0
0 0 0 0 0 0 0 0 0 0 0 0 0 0 0 0 0 0 0 0 0 0 0 0 0 0 0 0 0 0 0 0 0 0 0 0 0 0 0 0 0 0 0 0 0 0 0 0 0
0 0 0 0 0 0 0 0 0 0 0 0 0 0 0 0 0 0 0 0 0 0 0 0 0 0 0 0 0 0 0 0 0 0 0 0 0 0 0 0 0 0 0 0 0 0 0 0 0
0 0 0 0 0 0 0 0 0 0 0 0 0 0 0 0 0 0 0 0 0 0 0 0 0 0 0 0 0 0 0 0 0 0 0 0 0 0 0 0 0 0 0 0 0 0 0 0 0
0 0 0 0 0 0 0 0 0 0 0 0 0 0 0 0 0 0 0 0 0 0 0 0 0 0 0 0 0 0 0 0 0 0 0 0 0 0 0 0 0 0 0 0 0 0 0 0 0
0 0 0 0 0 0 0 0 0 0 0 0 0 0 0 0 0 0 0 0 0 0 0 0 0 0 0 0 0 0 0 0 0 0 0 0 0 0 0 0 0 0 0 0 0 0 0 0 0
0 0 0 0 0 0 0 0 0 0 0 0 0 0 0 0 0 0 0 0 0 0 0 0 0 0 0 0 0 0 0 0 0 0 0 0 0 0 0 0 0 0 0 0 0 0 0 0 0
0 0 0 0 0 0 0 0 0 0 0 0 0 0 0 0 0 0 0 0 0 0 0 0 0 0 0 0 0 0 0 0 0 0 0 0 0 0 0 0 0 0 0 0 0 0 0 0 0
0 0 0 0 0 0 0 0 0 0 0 0 0 0 0 0 0 0 0 0 0 0 0 0 0 0 0 0 0 0 0 0 0 0 0 0 0 0 0 0 0 0 0 0 0 0 0 0 0
0 0 0 0 0 0 0 0 0 0 0 0 0 0 0 0 0 0 0 0 0 0 0 0 0 0 0 0 0 0 0 0 0 0 0 0 0 0 0 0 0 0 0 0 0 0 0 0 0
0 0 0 0 0 0 0 0 0 0 0 0 0 0 0 0 0 0 0 0 0 0 0 0 0 0 0 0 0 0 0 0 0 0 0 0 0 0 0 0 0 0 0 0 0 0 0 0 0
0 0 0 0 0 0 0 0 0 0 0 0 0 0 0 0 0 0 0 0 0 0 0 0 0 0 0 0 0 0 0 0 0 0 0 0 0 0 0 0 0 0 0 0 0 0 0 0 0
0 0 0 0 0 0 0 0 0 0 0 0 0 0 0 0 0 0 0 0 0 0 0 0 0 0 0 0 0 0 0 0 0 0 0 0 0 0 0 0 0 0 0 0 0 0 0 0 0
-0 0 0 0 0 0 0 0 0 0 0 0 0 0 0 0 0 0 0 0 0 0 0 0 0 0 0 0 0 0 0 0 0 0 0 0 0 0 0 0 0 0 0 0 0 0 0 0 0
-0 -0 0 0 0 0 0 0 0 0 0 0 0 0 0 0 0 0 0 0 0 0 0 0 0 0 0 0 0 0 0 0 0 0 0 0 0 0 0 0 0 0 0 0 0 0 0 0 0
-0 -0 0 0 0 0 0 0 0 0 0 0 0 0 0 0 0 0 0 0 0 0 0 0 0 0 0 0 0 0 0 0 0 0 0 0 0 0 0 0 0 0 0 0 0 0 0 0 0
0 0 0 0 0 0 0 0 0 0 0 0 0 0 0 0 0 0 0 0 0 0 0 0 0 0 0 0 0 0 0 0 0 0 0 0 0 0 0 0 0 0 0 0 0 0 0 0 0
0 0 0 0 0 0 0 0 0 0 0 0 0 0 0 0 0 0 0 0 0 0 0 0 0 0 0 0 0 0 0 0 0 0 0 0 0 0 0 0 0 0 0 0 0 0 0 0 0
Wind_Speed
15 15 7 2 3 3 7 10 1 4 4 7 7 6 7 6 5 6 4 7 9 13 14 11 11 11 11 12 12 10 7 6 4 4 4 2 2 4 6 6 6 7 6 6 8 9 8 9 10
11 13 6 3 3 4 8 9 3 6 7 6 7 5 5 1 8 8 6 6 8 12 14 12 12 11 12 12 11 9 7 6 3 2 3 3 1 1 4 5 6 6 4 4 6 7 7 7 7
12 11 4 3 5 5 5 6 8 8 7 5 5 6 3 5 7 6 6 6 8 9 12 14 14 12 13 13 11 8 7 6 3 1 2 3 3 2 4 4 6 5 3 3 4 5 5 6 6
6 4 4 5 11 8 2 5 5 6 7 5 4 7 5 5 5 5 7 6 8 8 13 14 14 13 13 12 11 9 7 6 3 1 0 2 5 4 4 5 7 6 4 1 2 3 4 5 5
5 4 5 8 13 7 2 4 2 2 6 4 4 6 5 4 7 6 5 4 7 9 14 13 13 13 12 12 11 9 8 6 4 2 1 2 7 5 5 8 7 6 4 1 3 4 5 6 7
4 4 6 9 12 9 5 3 1 5 7 5 2 5 5 7 8 5 5 2 5 8 12 12 13 11 11 11 11 10 9 7 4 2 0 2 5 7 4 7 7 5 3 3 5 6 7 8 8
6 6 9 12 12 8 3 3 2 5 4 6 3 3 5 7 5 4 4 3 5 7 10 12 9 8 9 9 8 9 7 6 5 3 1 3 2 3 5 6 6 5 3 5 7 8 9 10 10
6 6 12 12 13 11 4 3 2 3 5 7 4 3 5 5 7 5 3 2 4 5 6 11 11 10 8 8 9 8 7 6 5 5 4 4 4 6 6 7 7 5 5 7 9 10 11 11 12
7 8 13 12 12 8 4 3 4 2 3 6 7 8 1 9 8 8 5 4 4 4 4 6 9 9 9 10 11 9 8 7 7 6 7 5 5 7 7 5 6 4 6 9 11 12 13 12 11
8 11 17 12 12 9 7 4 3 4 5 7 8 8 4 6 3 3 5 8 9 8 6 5 5 7 6 5 9 6 7 7 7 6 8 6 5 1 3 3 5 7 8 10 13 14 13 10 7
13 16 13 15 15 11 7 5 4 7 8 7 8 8 5 2 1 4 6 6 9 11 9 6 5 6 5 4 4 3 3 5 6 5 5 3 2 2 2 2 4 6 7 6 7 8 6 7 6
19 18 17 17 15 9 4 6 9 10 9 8 9 8 7 6 4 6 4 1 3 8 9 7 6 4 4 5 3 2 3 3 2 3 2 1 1 0 0 1 1 2 2 2 3 3 5 5 5
23 21 18 15 15 12 7 9 11 12 9 10 11 11 9 7 7 5 1 1 1 6 7 7 7 6 4 3 3 1 2 4 4 3 2 3 2 2 3 2 2 3 3 3 3 4 5 6 6
15 17 19 19 15 13 11 11 13 12 9 11 11 7 5 5 3 1 2 1 2 5 6 5 6 6 7 4 3 2 1 3 3 4 3 3 1 2 2 3 3 4 3 3 3 4 5 4 4
18 17 18 19 18 13 11 16 16 13 12 13 10 7 2 3 4 1 4 5 6 6 4 3 1 3 8 7 5 3 3 4 4 4 4 3 4 4 4 4 4 4 4 4 4 5 5 5 5
11 16 20 19 17 14 12 14 10 10 11 10 7 4 6 5 1 4 5 3 3 4 4 4 2 2 6 6 5 3 5 5 5 5 6 8 7 6 5 5 4 5 5 5 5 5 5 5 6
10 15 19 17 16 15 17 12 9 11 7 6 6 6 9 8 5 6 4 4 3 5 5 4 5 5 7 8 6 7 8 8 8 7 6 7 8 8 6 5 5 6 5 5 6 5 5 6 7
12 13 17 17 14 17 19 16 10 11 7 8 8 5 9 9 7 6 5 4 5 6 6 6 7 8 8 8 9 8 9 7 6 6 6 7 7 8 7 5 6 6 5 5 6 6 7 5 6
17 16 16 16 17 18 18 16 13 11 10 8 7 6 9 10 8 5 6 5 6 6 7 7 8 7 7 7 7 6 6 5 5 5 7 7 7 7 7 5 5 5 5 6 6 5 6 5 5
23 22 18 14 17 18 15 15 12 13 14 9 8 8 12 11 8 6 6 6 7 7 8 8 9 9 9 8 6 6 6 5 5 4 6 7 7 7 7 6 5 5 5 6 6 4 4 4 5
23 23 20 16 15 14 9 11 12 12 11 9 7 9 15 13 10 8 8 7 7 7 8 8 9 10 10 10 8 7 5 5 4 4 4 6 7 7 6 6 5 5 5 4 5 5 6 5 5
22 22 21 20 13 8 9 6 14 20 16 10 8 9 15 13 11 9 9 8 7 7 7 8 8 8 8 7 7 8 6 5 4 3 3 5 6 6 6 5 5 5 4 5 5 5 4 5 4
15 12 21 22 15 10 12 8 7 9 12 10 9 11 14 13 12 10 10 9 7 7 7 7 8 8 8 8 8 8 6 5 3 4 4 5 5 6 5 5 4 4 4 5 5 5 5 4 4
12 12 17 15 12 14 14 10 6 8 16 15 11 13 15 13 11 10 9 9 8 7 7 7 8 8 8 9 8 8 8 6 6 5 4 3 4 4 5 4 4 4 3 4 4 4 6 5 5
13 13 10 11 11 8 12 8 6 3 10 15 16 16 15 13 12 11 10 9 8 7 7 7 8 8 8 8 8 8 7 7 6 5 5 4 3 3 4 4 4 4 4 4 4 5 6 7 6
18 17 8 7 9 7 10 8 3 8 8 12 15 16 15 13 11 11 10 9 8 8 8 7 8 8 8 8 7 7 7 5 4 5 4 4 3 3 4 4 5 5 5 5 5 5 6 6 7
13 17 16 8 7 6 6 5 6 7 8 11 14 16 15 13 13 12 11 10 9 8 8 8 8 8 8 7 7 7 7 6 5 5 4 3 3 3 5 5 5 5 6 6 6 5 6 7 7
7 9 11 8 6 6 9 8 9 10 8 9 15 16 15 14 14 12 11 10 9 7 8 8 8 8 7 7 6 6 6 5 5 5 5 5 4 4 5 5 5 6 6 6 6 6 7 8 8
13 11 12 5 1 5 7 3 6 11 12 11 13 16 16 15 15 13 11 11 10 8 7 7 8 8 7 7 6 7 6 5 5 5 4 4 4 5 5 5 5 6 6 6 6 7 9 9 8
10 9 7 1 2 4 6 4 5 9 8 9 10 14 15 14 13 12 12 12 10 9 8 7 7 7 6 6 7 7 5 4 5 4 4 4 4 4 5 5 6 7 7 7 7 8 9 9 9
Wind_Direction
312 306 309 307 274 235 251 252 259 54 37 25 336 298 296 310 36 93 120 98 110 122 132 147 149 151 146 143 134 133 133 122 114 101 95 88 98 93 92 93 78 62 41 12 2 2 10 21 19
300 299 306 270 262 257 240 243 109 45 11 340 298 261 255 89 87 105 107 92 115 126 138 148 146 148 145 142 139 144 142 131 120 98 53 26 350 176 136 128 107 90 62 19 6 2 1 4 2
285 285 281 279 260 262 325 5 47 20 337 322 317 312 352 34 53 75 102 125 120 126 137 139 147 150 145 144 147 151 148 137 130 105 27 0 345 272 201 166 134 117 94 39 10 358 355 348 339
295 293 247 242 262 264 310 307 26 3 315 311 320 305 79 47 47 86 126 150 130 127 121 138 145 148 150 151 152 151 151 151 151 155 308 334 348 315 195 162 148 143 139 80 353 325 318 318 317
265 253 257 258 264 264 285 292 23 290 271 293 333 322 71 88 97 107 133 147 137 130 124 139 143 150 156 157 158 161 159 158 156 156 215 13 16 7 165 162 161 168 173 205 300 310 303 297 291
259 241 249 255 260 242 191 249 309 259 271 295 346 334 83 75 76 87 117 178 124 117 126 136 148 153 157 159 168 176 171 167 163 155 230 38 41 36 98 159 173 191 206 252 283 302 302 301 291
247 254 256 266 276 278 214 89 304 280 312 307 25 312 103 89 98 128 139 156 120 127 134 144 154 161 167 170 180 185 180 174 163 160 98 95 100 71 98 143 178 205 238 273 276 286 291 292 289
254 258 254 255 265 273 280 106 267 291 297 323 338 272 105 124 120 104 105 126 131 141 153 153 164 172 174 181 188 176 172 168 166 170 161 171 221 227 203 187 190 208 257 282 283 282 283 283 284
264 248 243 238 251 264 260 173 242 252 275 277 270 271 227 135 143 146 155 171 174 180 181 168 167 168 178 181 174 169 165 173 185 192 205 212 231 225 209 176 167 222 267 274 274 275 275 275 276
221 235 240 245 259 273 271 223 233 276 273 274 269 255 205 150 165 203 195 183 181 185 201 191 180 161 174 155 153 180 176 176 199 208 190 210 222 128 109 158 215 243 257 265 267 266 268 268 259
224 232 248 252 255 264 275 299 299 284 268 268 283 304 338 21 7 271 241 213 182 175 177 184 188 169 164 137 166 175 169 164 200 201 164 180 150 139 193 209 214 232 239 246 259 251 248 241 241
237 236 238 251 264 265 260 281 277 268 274 288 292 294 292 287 265 255 256 356 137 153 158 172 177 174 168 150 166 174 163 157 167 143 151 153 113 70 270 315 297 268 247 255 280 278 282 277 278
236 241 244 247 254 265 230 240 259 263 270 274 271 262 251 246 234 241 262 71 150 142 147 168 171 170 164 143 134 202 173 143 149 111 93 68 37 13 24 340 344 337 346 340 338 327 322 324 319
249 243 245 254 249 248 252 249 251 255 257 260 264 266 262 259 222 26 345 55 102 122 141 160 173 171 148 138 146 199 143 101 88 101 92 74 49 47 20 3 18 11 356 345 338 334 329 321 325
262 255 249 240 245 237 240 246 243 252 247 250 257 254 197 53 47 42 58 45 55 71 68 76 74 161 146 154 167 150 107 90 76 76 68 64 63 50 46 40 26 359 349 356 7 353 337 328 323
267 240 244 240 234 231 238 250 247 250 237 226 231 204 134 110 118 93 81 68 71 108 105 119 161 183 144 134 132 112 95 85 73 65 59 48 44 54 58 46 22 9 17 16 5 357 351 344 334
241 225 228 234 229 220 231 248 246 257 217 208 237 229 148 133 120 102 132 151 165 126 117 131 148 140 112 100 85 78 72 66 65 58 54 47 36 38 48 44 30 12 19 18 4 357 354 342 336
223 229 231 227 222 220 229 235 235 260 216 210 230 211 132 124 110 113 126 129 126 120 122 111 96 94 97 91 81 74 72 66 63 58 53 49 45 41 33 35 32 18 17 14 9 3 356 343 344
250 250 234 229 225 226 228 232 231 236 244 222 223 172 129 115 118 133 129 117 98 93 100 107 110 111 104 102 102 96 89 79 69 64 62 55 47 46 44 28 26 20 19 25 10 7 348 345 335
240 255 257 240 229 226 226 230 231 228 230 219 211 175 133 126 129 135 118 102 98 94 85 81 81 83 88 94 94 98 100 97 91 77 65 62 51 40 42 33 28 18 22 22 4 11 352 341 346
230 238 248 244 244 228 218 237 236 235 228 211 204 163 137 140 145 148 119 103 90 86 89 93 93 95 99 103 106 106 96 90 81 81 78 69 62 45 36 35 30 19 27 16 0 14 1 346 340
233 230 244 245 235 224 202 228 229 219 217 204 191 156 140 143 145 139 123 108 96 90 89 90 93 98 106 114 112 110 108 108 111 110 103 97 80 63 35 37 38 31 30 20 358 6 349 346 328
234 236 241 239 231 237 206 216 258 186 181 178 181 154 141 142 141 134 123 115 102 89 86 86 83 79 83 87 96 103 107 110 103 94 82 95 89 74 41 35 38 38 29 12 357 348 335 326 315
230 246 249 236 228 229 202 199 244 194 176 176 173 147 141 139 135 125 116 109 104 96 91 94 91 81 77 80 81 90 100 100 91 81 69 73 82 70 45 29 25 30 20 357 342 337 325 313 307
210 215 210 201 210 206 188 193 225 122 148 165 160 148 144 141 139 134 130 127 125 119 115 109 102 93 84 83 81 80 84 85 76 75 66 62 60 55 31 23 11 6 358 347 339 333 314 303 303
207 217 216 190 175 162 166 186 172 117 107 130 143 144 145 147 145 142 140 138 137 138 133 119 110 104 96 89 87 82 78 83 76 67 64 60 58 43 22 14 4 356 349 339 329 315 302 305 302
196 213 240 259 172 126 152 166 117 108 109 131 142 147 153 155 149 147 144 141 140 143 134 124 116 109 106 103 96 86 79 77 75 69 59 51 38 27 13 360 357 345 334 323 315 301 300 297 295
216 198 227 237 163 138 161 178 163 163 155 154 156 159 159 157 152 151 147 142 141 135 128 127 121 116 107 95 93 90 79 74 71 64 51 41 24 18 354 353 347 332 320 313 309 305 300 300 296
190 211 229 249 161 130 139 126 132 150 158 165 167 164 163 160 157 153 148 140 132 126 127 122 120 116 111 110 102 88 78 68 68 60 44 29 17 5 352 344 330 317 309 309 309 307 307 301 298
197 218 234 150 65 39 100 102 92 109 127 155 164 162 159 154 151 149 144 136 136 141 137 133 129 119 113 106 101 96 90 72 62 53 36 25 12 353 336 324 314 309 310 309 306 303 304 298 309